Buffalo, NY

2:22 AM EST on November 13, 2019 (GMT -0500)
Buffalo Niagara International

Weather History for KBUF - September, 2019

Change the Weather History Date:

Thursday, September 12, 2019

  Actual Average Record
Temperature  
Mean Temperature 62 °F 64 °F  
Max Temperature 68 °F 73 °F 91 °F (1952)
Min Temperature 55 °F 55 °F 38 °F (1943)
Degree Days  
Heating Degree Days 3 3  
Month to date heating degree days 16 27  
Since 1 July heating degree days 19 54  
Cooling Degree Days 0 2  
Month to date cooling degree days 23 33  
Year to date cooling degree days 568 520  
Growing Degree Days 10 (Base 50)    
Moisture  
Dew Point 57 °F    
Average Humidity 78    
Maximum Humidity 93    
Minimum Humidity 63    
Precipitation  
Precipitation 0.13 in 0.12 in 1.85 in (2015)
Month to date precipitation 4.12 1.39  
Year to date precipitation 32.49 26.55  
Snow  
Snow 0.00 in 0.00 in 0.00 in ()
Month to date snowfall 0.0 0.0  
Since 1 July snowfall 0.0 0.0  
Since 1 September snowfall 0.0 0.0  
Snow Depth 0.00 in    
Sea Level Pressure  
Sea Level Pressure 30.18 in    
Wind  
Wind Speed 11 mph (NE)    
Max Wind Speed 18 mph    
Max Gust Speed 23 mph    
Visibility 9 miles    
Events Rain    
T = Trace of Precipitation, MM = Missing Value Source: NWS Daily Summary

Daily Weather History Graph

Daily Weather History Graph

Search for Another Location

Airport or City:

Astronomy

Sep. 12, 2019 Rise Set
Actual Time 6:51 AM EDT 7:30 PM EDT
Civil Twilight 6:22 AM EDT 7:59 PM EDT
Nautical Twilight 5:48 AM EDT 8:32 PM EDT
Astronomical Twilight 5:13 AM EDT 9:07 PM EDT
Moon 7:17 PM EDT (9/12) 5:04 AM EDT (9/12)
Length of Visible Light 13h 36m
Length of Day
12h 39m
Waxing Gibbous, 98% of the Moon is Illuminated
Sep 12
Waxing Gibbous
Sep 14
Full
Sep 21
Last Quarter
Sep 28
New
Oct 5
First Quarter

Hourly Weather History & Observations

Time (EDT) Temp. Dew Point Humidity Pressure Visibility Wind Dir Wind Speed Gust Speed Precip Events Conditions
12:40 AM 68.0 °F 66.0 °F 93% 30.07 in 10.0 mi North 4.6 mph - 0.00 in   Overcast
12:54 AM 68.0 °F 66.0 °F 93% 30.07 in 10.0 mi Calm Calm - 0.00 in   Overcast
1:08 AM 68.0 °F 66.0 °F 93% 30.08 in 10.0 mi NNW 3.5 mph - N/A   Overcast
1:54 AM 68.0 °F 66.0 °F 93% 30.06 in 10.0 mi ENE 3.5 mph - N/A   Overcast
2:36 AM 66.0 °F 63.0 °F 90% 30.06 in 10.0 mi NE 13.8 mph - N/A   Overcast
2:54 AM 64.9 °F 62.1 °F 90% 30.06 in 10.0 mi NE 12.7 mph - 0.00 in Rain Light Rain
3:35 AM 63.0 °F 61.0 °F 93% 30.06 in 7.0 mi ENE 13.8 mph - 0.01 in Rain Light Rain
3:54 AM 63.0 °F 60.1 °F 90% 30.06 in 9.0 mi ENE 12.7 mph - 0.01 in Rain Light Rain
4:39 AM 62.1 °F 59.0 °F 90% 30.08 in 10.0 mi NE 11.5 mph - 0.01 in Rain Light Rain
4:54 AM 62.1 °F 57.9 °F 86% 30.08 in 10.0 mi NE 13.8 mph - 0.01 in   Overcast
5:17 AM 61.0 °F 57.9 °F 90% 30.09 in 10.0 mi NE 13.8 mph - N/A   Overcast
5:54 AM 60.1 °F 57.0 °F 90% 30.10 in 7.0 mi NE 15.0 mph - 0.00 in Rain Light Rain
6:54 AM 60.1 °F 57.0 °F 90% 30.12 in 9.0 mi NE 11.5 mph - 0.04 in Rain Light Rain
7:54 AM 59.0 °F 57.0 °F 93% 30.15 in 10.0 mi NE 12.7 mph - 0.00 in   Overcast
8:54 AM 59.0 °F 57.0 °F 93% 30.17 in 6.0 mi NE 12.7 mph - 0.01 in Rain Light Rain
9:54 AM 59.0 °F 55.9 °F 90% 30.19 in 6.0 mi NE 12.7 mph - 0.00 in Rain Rain
10:54 AM 59.0 °F 55.9 °F 90% 30.21 in 4.0 mi NE 10.4 mph - 0.01 in Rain Rain
11:54 AM 59.0 °F 55.9 °F 90% 30.22 in 3.0 mi NE 12.7 mph - 0.04 in Rain Light Rain
12:54 PM 60.1 °F 57.0 °F 90% 30.22 in 9.0 mi NE 11.5 mph - 0.01 in Rain Light Rain
1:26 PM 61.0 °F 55.9 °F 83% 30.22 in 10.0 mi ENE 12.7 mph - 0.00 in   Overcast
1:54 PM 61.0 °F 55.9 °F 83% 30.22 in 10.0 mi NE 10.4 mph - 0.00 in   Overcast
2:49 PM 62.6 °F 55.4 °F 77% 30.23 in 10.0 mi ENE 13.8 mph - N/A   Overcast
2:54 PM 62.1 °F 55.0 °F 78% 30.23 in 10.0 mi ENE 12.7 mph - N/A   Overcast
3:54 PM 62.1 °F 54.0 °F 75% 30.25 in 10.0 mi NE 12.7 mph - N/A   Mostly Cloudy
4:54 PM 63.0 °F 53.1 °F 70% 30.25 in 10.0 mi ENE 13.8 mph - N/A   Mostly Cloudy
5:14 PM 64.9 °F 53.1 °F 65% 30.26 in 10.0 mi ENE 12.7 mph - N/A   Scattered Clouds
5:54 PM 64.9 °F 52.0 °F 63% 30.26 in 10.0 mi NE 11.5 mph - N/A   Partly Cloudy
6:54 PM 63.0 °F 51.1 °F 65% 30.28 in 10.0 mi ENE 10.4 mph - N/A   Partly Cloudy
7:54 PM 60.1 °F 51.1 °F 72% 30.29 in 10.0 mi ENE 8.1 mph - N/A   Partly Cloudy
8:54 PM 59.0 °F 51.1 °F 75% 30.30 in 10.0 mi ENE 8.1 mph - N/A   Partly Cloudy
9:54 PM 57.9 °F 50.0 °F 75% 30.31 in 10.0 mi East 6.9 mph - N/A   Partly Cloudy
10:54 PM 57.0 °F 48.9 °F 74% 30.31 in 10.0 mi ENE 9.2 mph - N/A   Partly Cloudy
11:54 PM 55.9 °F 48.9 °F 77% 30.32 in 10.0 mi East 5.8 mph - N/A   Partly Cloudy